Theta_e
294 294 294 294 293 294 294 295 295 295 295 295 296 296 296 296 297 296 294 296 291 285 287 291 292 289 291 291 286 287 287 286 285 283 284 285 285 286 284 283 280 282 282 283 284 283 282 288 287 291 295 291 292 292
294 294 294 293 293 293 294 294 294 294 295 295 296 296 296 297 297 297 290 296 296 287 287 292 293 295 296 296 293 291 290 287 290 286 286 287 284 284 287 283 283 284 289 288 288 288 293 292 296 295 294 292 291 293
293 293 292 293 293 292 293 293 293 294 294 295 295 296 296 296 297 297 292 294 292 286 285 287 286 293 297 298 301 289 291 293 292 296 290 287 285 286 285 287 285 284 286 287 289 290 291 291 293 293 293 293 291 292
292 292 292 292 292 292 293 292 293 294 294 295 295 295 295 296 296 297 291 293 291 287 281 284 293 290 298 297 298 299 295 296 295 294 289 285 285 289 288 289 289 289 287 286 288 287 291 292 294 293 291 290 288 288
292 292 291 291 292 292 293 293 293 293 293 294 295 295 295 296 296 295 293 293 294 286 280 283 288 292 294 296 295 296 294 293 291 286 285 284 288 286 284 285 288 288 286 288 289 291 294 295 295 291 291 291 291 290
292 291 290 290 291 292 293 293 293 293 293 293 294 295 295 295 296 291 283 291 294 293 284 278 287 286 291 293 294 294 294 292 291 286 285 286 288 288 285 285 291 290 289 294 294 294 296 293 292 292 293 292 290 289
290 290 290 290 291 291 292 292 292 292 293 293 294 295 294 295 292 285 283 289 295 293 283 279 281 286 288 290 290 290 291 286 287 285 284 286 287 288 286 285 288 289 291 292 292 290 288 287 293 289 290 289 287 284
290 290 290 290 290 291 291 292 292 292 293 293 293 294 295 295 293 288 292 294 295 288 285 278 280 282 288 285 285 288 287 285 284 285 284 285 285 286 284 290 293 291 289 288 290 289 292 290 286 284 280 282 284 284
289 289 290 290 290 291 291 291 292 292 293 293 294 294 289 287 284 287 293 294 293 286 280 281 278 277 286 286 286 284 286 282 285 284 284 285 285 282 287 289 291 290 288 290 288 283 282 285 286 281 281 282 285 281
289 289 290 290 291 291 293 292 293 294 293 293 289 284 278 282 291 292 283 282 282 282 282 279 279 279 285 284 284 284 285 284 280 284 285 283 285 289 288 291 292 291 290 286 283 281 280 280 282 280 282 283 286 282
289 289 290 291 292 292 293 294 293 293 292 284 279 277 282 286 281 277 273 275 276 275 277 277 279 281 285 282 283 287 284 283 279 281 283 282 283 285 287 287 283 283 285 283 283 288 287 288 285 280 279 279 278 278
289 290 291 292 292 292 293 293 294 286 283 282 281 282 280 275 273 272 269 270 270 273 273 277 279 283 284 285 284 283 282 282 278 284 282 280 283 281 284 279 277 279 280 280 282 284 285 285 284 282 278 276 275 274
290 291 291 292 293 293 294 293 292 291 287 282 278 274 274 270 268 269 266 267 266 270 274 277 279 282 283 285 282 282 279 278 284 281 279 282 273 274 275 275 274 275 276 276 274 274 275 274 277 279 273 272 272 273
290 291 291 293 293 294 294 293 292 285 282 277 274 269 269 267 266 264 267 268 271 272 274 277 277 280 281 281 280 277 278 281 278 275 276 273 265 265 271 273 274 273 273 272 271 272 271 271 269 270 271 272 272 272
289 290 289 291 292 293 293 290 285 278 275 272 270 268 266 263 262 262 263 269 272 276 276 276 277 278 277 276 277 277 275 272 276 274 272 265 262 265 269 271 271 271 270 269 269 269 269 269 267 266 267 269 270 270
286 288 286 290 289 289 290 284 278 276 270 269 267 265 264 267 267 268 270 270 274 275 273 272 273 273 272 273 273 272 271 270 273 270 265 260 262 265 267 269 269 270 269 268 268 267 267 267 266 264 265 266 266 267
288 283 288 288 289 287 287 277 275 269 269 266 264 262 265 267 266 266 268 270 272 269 269 267 266 266 269 272 270 272 272 273 271 261 258 258 260 261 263 267 268 268 268 268 267 266 265 265 266 266 263 262 263 262
279 282 287 287 283 280 271 270 270 269 265 263 266 263 263 262 265 267 268 264 268 269 264 266 267 265 266 265 267 271 268 263 260 259 259 258 258 260 263 265 266 266 265 265 265 265 266 265 264 262 261 261 261 261
284 282 284 284 279 271 267 265 265 262 259 259 261 260 259 261 261 261 260 262 260 261 267 264 264 263 266 266 270 266 261 261 263 261 259 258 259 259 261 263 265 265 265 265 265 264 264 264 263 262 262 263 261 261
284 284 283 279 277 268 266 262 261 262 260 259 259 259 258 259 258 258 257 258 262 263 263 263 263 265 266 264 260 263 261 259 259 260 260 259 260 260 261 262 263 264 264 263 263 263 262 262 263 262 262 262 261 260
276 275 277 267 259 257 255 252 257 256 256 259 256 259 259 257 256 257 259 257 264 264 265 261 258 254 250 250 252 253 258 260 260 262 261 258 259 260 260 262 263 264 264 264 263 263 263 262 262 262 261 260 260 260
263 276 263 265 259 256 255 252 256 256 258 257 258 257 257 258 256 256 253 261 261 255 252 253 252 250 252 252 251 251 252 253 256 260 258 259 258 259 259 261 262 262 263 263 263 261 261 261 261 261 260 260 260 260
270 266 260 260 261 259 256 253 256 255 260 258 257 258 255 254 254 255 258 254 253 251 249 249 249 247 248 249 248 250 249 254 258 259 261 261 262 262 261 262 263 261 261 261 262 261 260 261 260 260 260 259 259 259
267 256 254 251 254 254 253 254 251 253 253 253 253 256 257 256 255 257 256 252 253 250 250 249 250 253 253 252 252 251 251 252 256 259 261 261 261 261 262 261 262 262 262 262 261 260 260 260 260 260 260 259 259 258
260 255 255 252 253 254 254 253 252 254 250 245 250 251 251 249 253 252 254 255 253 251 250 251 251 253 253 252 253 253 250 252 256 257 258 260 258 259 259 258 259 261 263 261 260 259 259 260 260 259 259 259 258 257
250 251 252 251 252 253 250 252 250 250 246 249 247 246 249 255 256 256 251 249 251 248 246 247 248 250 254 254 253 254 256 255 259 257 257 261 262 261 259 258 258 258 261 263 261 259 259 260 259 259 259 258 258 257
250 249 251 251 250 250 250 248 246 248 248 250 248 250 250 251 250 248 249 249 249 250 249 248 249 249 250 253 252 251 253 254 258 258 257 257 259 261 263 261 260 260 261 262 262 261 260 259 259 258 257 257 257 257
246 246 247 250 253 250 250 249 250 247 244 241 243 248 249 248 249 247 248 249 248 247 247 250 250 249 250 252 252 253 254 255 256 256 258 257 255 255 257 260 260 263 262 262 261 261 260 259 257 257 256 255 254 256
246 246 246 252 254 251 246 246 246 244 242 239 245 244 244 243 242 242 245 245 245 246 250 250 251 251 252 252 251 251 252 255 259 259 259 257 259 257 255 257 258 259 260 261 263 260 259 258 257 257 255 254 254 255
246 245 247 249 250 249 246 244 245 243 242 241 239 240 240 240 240 238 240 244 245 246 246 247 249 251 252 253 253 253 251 250 250 257 259 259 259 254 254 255 256 257 259 260 260 261 261 256 256 253 253 253 253 252
245 246 247 247 247 247 245 245 244 243 242 241 240 242 242 240 240 237 237 240 242 246 248 248 251 250 251 252 252 252 252 251 249 248 248 249 252 252 253 253 254 257 259 257 255 254 254 254 254 253 252 252 251 252
243 245 245 249 248 246 245 245 246 246 245 245 246 243 243 242 242 242 241 241 243 244 245 245 247 247 247 248 249 250 250 250 251 249 248 250 250 250 251 251 252 254 254 253 253 253 253 253 252 252 251 250 249 249
240 243 246 247 249 249 246 245 249 249 249 249 246 245 246 247 247 246 241 238 240 240 242 243 244 244 245 246 247 248 248 247 250 255 253 251 250 250 249 249 251 252 252 251 251 251 251 250 250 249 249 248 248 248
Wind_Speed
21 19 21 19 17 17 15 17 18 17 19 22 21 20 23 21 20 12 5 9 5 5 9 7 12 16 10 10 11 4 5 3 5 8 8 5 7 10 4 8 11 13 13 9 5 10 23 6 8 12 7 1 6 7
19 19 21 16 17 17 18 19 15 19 22 23 24 22 22 24 22 18 6 7 8 4 3 2 13 18 18 16 10 9 3 6 8 6 5 3 4 4 10 13 1 12 10 12 15 7 4 24 13 18 5 7 7 8
20 21 18 16 19 18 17 18 18 20 20 21 22 21 22 24 25 21 9 5 6 5 5 7 14 14 11 14 11 4 4 3 4 2 5 3 6 6 8 17 4 7 2 5 5 6 8 16 4 4 6 7 7 6
19 17 17 18 18 19 19 18 19 19 17 18 17 21 23 25 26 24 11 7 7 1 5 7 5 16 13 18 15 10 8 2 3 2 4 4 4 7 11 6 16 6 13 7 8 1 4 3 12 6 5 3 6 6
17 17 17 18 19 18 19 20 19 18 16 18 18 18 21 25 28 18 9 8 10 7 3 4 6 7 14 17 21 20 14 8 5 2 4 5 3 2 1 1 15 7 8 14 11 10 7 11 18 11 12 11 10 10
19 17 18 19 21 18 21 21 20 21 17 17 18 17 18 19 24 11 8 9 11 8 4 7 3 7 10 19 19 17 15 11 6 4 3 4 3 4 4 9 9 12 8 8 10 8 12 4 3 16 17 12 9 9
18 18 18 19 22 22 22 22 21 21 18 19 20 18 18 15 10 8 3 3 23 11 4 5 6 5 7 7 8 9 9 3 4 3 5 3 4 5 3 16 3 10 14 10 4 8 1 4 8 13 11 9 7 4
17 18 20 21 22 24 25 24 24 23 20 20 20 14 19 18 15 10 8 7 11 7 5 6 5 5 9 7 6 6 8 4 4 3 2 4 2 3 8 14 15 7 4 4 9 2 3 6 8 8 4 8 9 8
16 19 20 23 26 27 27 27 28 22 25 22 24 22 1 4 5 6 10 17 7 4 4 6 9 6 6 5 5 3 5 6 4 6 6 7 6 7 11 7 12 13 13 13 8 5 2 4 11 9 7 6 9 8
16 19 23 25 28 30 32 33 33 25 24 21 6 3 3 4 5 13 3 6 5 5 5 5 3 6 5 6 7 6 6 5 6 6 5 6 5 9 7 11 13 15 18 14 9 5 4 3 9 9 10 6 9 13
16 19 23 27 30 34 32 21 28 25 19 4 4 4 3 3 2 2 4 5 4 6 5 4 5 5 4 4 5 6 5 7 8 6 8 7 7 9 11 10 4 4 9 4 1 7 5 6 13 11 8 7 9 11
16 18 22 17 20 16 13 13 21 8 4 8 8 5 3 3 2 5 4 3 6 7 4 5 4 2 1 4 5 5 4 4 7 8 5 5 5 2 7 5 3 4 6 5 0 6 7 8 10 10 9 9 9 10
14 17 18 27 18 17 25 27 20 27 15 4 4 3 1 2 2 5 6 3 3 6 4 3 4 4 2 2 4 1 4 3 7 5 3 2 4 9 7 6 7 5 4 5 6 7 10 9 8 8 12 8 12 12
9 15 19 20 17 26 29 27 26 9 6 3 4 5 3 4 5 4 3 2 0 2 4 2 2 1 2 4 2 1 2 3 2 4 4 3 7 10 7 5 4 3 5 6 8 9 12 12 11 10 9 9 12 11
9 10 14 22 23 24 26 21 11 5 3 3 3 4 4 0 1 2 2 1 2 3 1 3 3 2 3 4 3 2 3 2 3 2 4 3 7 8 6 5 3 4 5 7 6 9 10 12 12 11 8 8 11 11
4 4 5 14 15 8 15 14 7 3 4 3 4 3 1 1 1 1 1 2 2 1 2 2 3 3 3 2 2 4 4 2 2 2 1 4 5 6 6 4 4 4 7 7 8 10 10 10 12 12 10 9 9 11
9 3 8 5 9 11 11 4 2 6 3 4 2 1 2 3 3 0 2 0 3 2 3 3 5 3 2 2 2 2 2 3 2 3 2 3 2 5 7 4 4 5 7 8 9 9 11 10 11 12 13 7 10 11
3 4 13 6 5 5 3 5 4 4 5 2 1 1 1 3 2 2 1 3 1 3 2 3 4 4 4 5 2 2 1 2 1 3 2 1 2 3 3 2 5 5 7 8 9 9 9 9 11 8 11 11 11 11
7 7 16 13 6 6 4 4 3 5 1 1 1 1 1 2 1 1 2 3 2 1 4 3 5 2 2 3 3 2 3 3 1 1 3 2 1 2 2 3 5 6 7 7 7 6 6 8 7 7 7 7 8 7
7 17 17 17 8 5 6 4 3 5 3 0 2 3 2 2 3 2 2 4 3 3 5 3 3 2 1 1 2 2 2 4 4 2 1 2 1 3 4 3 3 6 7 8 8 9 8 8 6 6 6 7 8 8
10 9 14 8 6 8 6 2 5 2 2 3 1 2 2 2 3 4 4 5 4 2 2 1 1 1 2 2 2 2 1 3 2 1 3 3 2 3 5 5 5 5 6 6 6 7 7 6 7 7 8 8 7 8
3 10 4 6 6 5 6 2 3 1 3 2 2 1 3 3 3 4 5 3 3 3 3 3 2 3 3 3 3 3 3 1 4 3 5 8 5 4 4 4 5 5 5 6 6 7 7 6 7 8 9 8 9 8
7 6 6 6 7 7 2 2 4 5 4 1 1 4 3 2 2 3 2 2 2 1 2 2 2 1 2 3 3 4 2 3 3 3 3 3 4 5 5 3 4 6 6 6 7 7 6 9 9 9 9 9 9 9
9 8 6 4 4 1 2 5 3 3 4 5 4 3 2 3 4 4 1 2 1 2 3 5 3 3 1 3 2 2 3 0 3 3 3 4 5 5 5 4 4 4 5 7 7 8 7 7 9 8 9 10 9 9
8 9 6 7 3 5 5 5 5 5 3 2 4 3 3 3 3 2 1 3 4 3 5 6 3 2 2 2 1 2 2 1 3 4 2 3 5 5 5 5 5 4 5 9 7 9 8 7 7 9 10 10 13 12
8 6 5 2 3 4 2 2 2 2 3 2 1 2 1 2 2 3 1 3 3 2 3 4 4 5 3 1 1 1 1 1 3 3 0 2 3 6 7 7 5 2 1 6 9 11 9 8 9 12 11 12 14 14
6 6 4 1 0 1 2 1 1 4 4 2 1 2 3 3 3 4 2 3 3 3 5 5 4 4 5 5 1 2 2 3 2 3 4 4 4 4 2 5 6 4 4 8 7 9 11 11 10 10 10 9 9 10
2 4 5 8 3 1 2 2 3 3 1 1 1 3 5 5 3 3 2 3 5 6 6 5 3 3 3 2 1 1 3 3 6 6 6 6 5 4 4 4 6 12 6 7 8 8 9 9 10 10 11 10 8 6
4 5 3 4 2 5 5 4 2 1 0 2 2 1 1 2 2 2 4 6 6 4 4 4 3 2 1 2 3 4 4 2 3 7 6 4 3 2 3 4 5 6 6 7 10 9 11 10 10 9 9 8 7 8
4 4 4 5 4 5 2 1 2 1 0 1 1 1 2 2 3 1 3 4 5 4 4 4 4 3 3 2 2 4 4 4 3 2 4 4 3 5 5 5 6 5 6 7 9 11 15 11 13 7 8 7 6 6
5 3 3 1 2 1 1 1 0 1 0 0 1 1 2 2 4 2 2 3 3 4 5 6 5 6 5 5 3 2 3 3 5 4 2 1 3 5 5 5 4 5 7 8 8 7 9 9 8 9 9 10 9 9
4 4 4 4 2 1 1 2 1 1 0 1 3 0 2 3 4 4 3 3 3 5 6 5 5 4 6 4 3 2 4 4 4 4 4 2 3 4 5 5 4 6 8 7 7 8 9 10 8 8 9 10 9 9
3 3 2 3 2 2 4 5 1 1 2 2 3 3 3 2 2 4 2 1 2 2 3 4 4 4 5 5 3 4 5 2 4 5 6 7 6 7 5 4 4 6 8 7 7 7 8 10 9 8 8 9 9 8
Wind_Direction
250 247 255 255 265 266 273 277 276 288 287 281 269 259 246 244 242 230 246 186 205 220 246 268 246 227 222 205 212 160 124 166 170 207 201 184 224 209 179 160 175 174 177 194 205 224 244 139 112 183 196 330 148 166
250 254 256 260 264 262 266 265 275 292 283 275 261 253 252 243 241 230 234 196 198 234 301 273 251 258 242 230 226 191 206 159 175 178 208 191 220 178 185 217 203 206 200 194 196 223 111 172 180 211 170 154 188 161
240 238 252 255 262 267 270 275 281 285 293 277 259 252 256 252 240 225 221 190 183 227 251 231 233 236 246 238 242 244 210 222 228 259 162 211 225 152 204 221 154 229 212 210 126 191 180 192 191 188 190 189 160 160
236 245 251 258 263 268 265 266 278 276 291 279 268 262 255 250 239 228 218 201 195 245 245 238 207 223 221 217 218 223 206 253 246 197 210 205 211 192 224 231 217 177 147 175 252 346 59 232 216 207 178 168 150 144
235 241 251 260 263 265 267 271 269 276 286 287 273 273 265 250 239 228 217 201 202 196 261 254 319 246 222 211 211 214 215 213 236 213 212 212 199 173 188 346 232 183 175 200 224 161 180 195 210 172 175 194 182 160
226 234 247 256 261 267 269 264 267 270 265 279 280 263 274 256 222 200 223 215 197 195 227 256 209 226 220 209 207 209 208 216 215 178 191 223 237 197 192 238 225 198 198 215 217 190 198 180 171 177 188 191 183 184
230 239 250 260 267 270 266 266 270 272 271 279 273 262 255 238 203 193 179 216 178 162 212 234 241 212 204 190 212 213 183 179 170 172 214 211 202 180 233 244 163 195 203 209 167 125 122 214 190 185 180 164 143 102
237 248 256 263 269 268 265 265 263 262 264 262 267 269 255 230 221 211 215 164 167 170 180 228 234 188 180 181 198 171 199 177 196 184 191 194 143 181 245 246 214 206 207 219 199 260 234 150 101 123 102 134 152 168
248 257 265 269 270 270 267 262 256 262 261 245 263 244 277 187 198 215 184 193 186 221 252 193 192 214 170 181 168 165 149 195 165 206 195 163 178 214 230 173 204 192 188 206 165 125 99 153 161 150 143 148 152 159
261 268 272 277 276 277 276 272 258 235 244 251 178 161 184 198 148 112 92 169 188 204 207 251 109 187 188 169 184 163 159 178 185 204 126 199 235 246 206 201 202 198 200 144 136 159 151 156 168 175 198 174 172 161
276 286 288 288 287 281 279 260 216 220 230 104 145 178 101 27 91 82 164 185 149 244 188 185 196 164 183 206 185 197 184 172 187 179 184 190 230 220 183 210 182 170 157 177 287 187 148 160 170 160 156 134 123 129
298 310 305 314 289 271 237 157 138 122 121 136 118 92 88 50 111 155 176 196 213 206 197 175 162 198 182 85 248 158 178 180 194 142 189 193 244 349 164 129 75 84 119 127 5 135 126 127 140 131 121 123 117 106
325 322 334 318 280 183 154 141 111 114 102 71 66 81 164 169 111 185 186 239 226 175 201 178 155 154 144 133 285 312 151 184 130 162 198 221 22 10 22 77 74 42 75 99 83 73 84 83 69 119 120 115 116 115
8 349 12 32 119 142 133 129 135 98 81 85 148 141 217 181 241 193 181 148 40 141 132 102 82 107 162 158 227 179 15 148 146 148 226 31 358 332 355 24 67 67 65 87 91 94 94 96 87 80 97 117 122 118
30 39 11 43 42 127 124 101 67 48 76 120 144 181 194 38 255 289 269 278 10 72 131 91 65 17 30 86 42 57 8 343 91 37 300 3 319 316 360 15 79 103 93 94 99 100 101 104 100 93 74 92 108 116
76 49 22 35 66 83 93 62 35 66 55 74 63 101 128 162 55 66 17 67 345 59 92 52 106 56 27 359 70 66 97 328 63 215 338 323 328 349 11 17 43 73 94 92 91 103 103 102 109 107 90 81 90 100
63 29 21 5 62 91 134 65 71 46 68 50 59 350 353 58 95 181 290 151 335 73 81 79 63 142 84 44 58 114 81 243 310 132 206 240 289 331 330 16 44 68 86 90 91 89 97 105 110 107 99 81 81 82
48 320 19 39 133 88 49 32 82 76 82 36 122 58 37 35 99 123 47 326 272 99 144 125 121 76 127 131 211 204 175 277 219 121 128 200 249 287 308 67 69 71 80 82 90 95 101 102 99 97 109 110 98 92
51 23 21 22 76 95 79 38 31 98 38 1 61 52 53 71 89 358 329 325 49 62 100 54 73 132 196 196 162 162 172 196 242 42 93 78 43 72 38 58 92 99 99 101 98 88 83 81 98 108 113 113 105 109
13 26 18 29 40 70 53 13 23 80 91 328 33 31 40 28 330 344 337 10 29 56 43 56 184 213 160 6 8 17 89 144 118 44 19 123 112 115 96 102 103 111 98 97 92 101 103 95 86 95 101 112 115 113
23 344 4 46 44 61 79 350 52 86 135 75 322 43 41 19 24 5 345 343 54 72 91 210 344 350 310 301 326 339 62 138 147 169 191 158 146 135 124 116 114 118 116 119 115 111 106 110 115 115 108 101 101 101
289 355 39 17 71 41 78 333 108 210 73 143 69 42 46 40 360 350 301 28 50 19 4 354 358 332 345 349 337 344 298 64 90 92 82 119 138 141 140 137 122 114 107 119 116 111 110 111 112 110 109 107 104 106
9 26 37 24 70 43 299 36 76 0 92 9 47 70 29 22 304 293 40 64 57 337 316 311 314 266 282 318 344 313 313 118 103 113 124 110 110 113 118 112 119 126 118 98 106 105 106 110 110 111 112 111 112 106
31 49 45 45 39 129 354 22 31 49 45 35 51 61 31 0 327 38 356 351 332 313 359 345 347 340 4 22 356 298 311 50 103 74 74 121 122 118 111 94 87 89 109 119 114 111 112 110 120 119 119 116 114 111
62 350 33 359 356 38 40 17 3 52 77 353 73 354 326 353 54 31 276 336 351 7 358 344 334 325 297 293 275 280 283 133 132 128 15 99 114 102 80 74 74 98 132 120 122 121 123 127 127 126 123 125 124 120
65 341 43 347 331 40 339 71 42 152 129 90 105 248 322 117 107 240 271 297 319 350 354 343 327 320 311 2 247 254 214 331 134 108 76 155 161 145 141 142 146 143 300 134 136 133 131 133 131 125 122 125 126 124
53 345 345 164 66 271 43 52 65 81 72 84 296 62 67 84 249 267 321 39 330 347 316 292 286 281 291 312 333 338 334 354 32 104 101 63 46 61 124 148 154 128 156 121 123 136 141 141 133 127 124 122 129 135
79 22 356 326 346 69 69 44 36 51 341 304 64 70 127 171 230 312 306 346 321 306 290 274 289 281 294 345 4 28 54 77 98 104 101 73 48 40 42 73 106 121 108 114 122 130 130 128 129 132 135 130 119 124
21 338 294 326 336 51 42 29 23 18 147 101 103 120 170 239 246 295 306 324 302 285 341 352 3 337 22 59 48 35 25 352 180 148 122 111 130 75 13 72 94 96 100 108 123 122 121 123 126 123 121 125 117 111
350 353 339 351 14 25 12 351 351 347 249 156 178 330 343 292 248 292 305 324 359 347 322 302 309 332 5 34 62 56 37 19 9 14 133 158 162 128 138 126 116 110 114 113 114 109 103 105 105 99 114 118 122 119
312 306 302 315 13 4 344 345 178 227 310 307 115 108 192 249 312 285 318 317 317 337 13 9 19 13 14 27 22 14 23 26 26 13 342 292 126 124 125 115 113 117 116 114 121 128 125 111 121 132 135 133 135 135
327 8 335 326 351 355 328 343 315 335 199 77 15 158 358 49 31 310 313 357 11 18 359 355 6 358 349 330 325 346 334 317 351 4 12 82 98 98 106 107 97 98 104 109 115 120 120 129 140 146 144 141 143 146
303 296 273 282 296 4 17 334 252 83 57 59 37 9 28 22 102 268 291 163 156 211 302 303 293 294 304 314 327 335 352 346 349 45 81 96 106 115 104 97 94 104 111 115 119 131 138 140 141 141 138 143 145 143